| time (UTC) | temp F | wind direction | speed MPH | gust MPH | rain 1hr in | rain 24hr in | rain mn in | humidity % | barometer mb |
| 20260506091551 | 58 | 0 | 0.0 | 0.0 | 0.00 | 0.03 | 0.00 | 89 | 1018.4 |
| 20260506090055 | 58 | 0 | 0.0 | 0.0 | 0.00 | 0.03 | 0.00 | 88 | 1018.4 |
| 20260506084558 | 58 | 0 | 0.0 | 0.0 | 0.00 | 0.05 | 0.00 | 88 | 1018.4 |
| 20260506083057 | 58 | 0 | 0.0 | 0.0 | 0.00 | 0.05 | 0.00 | 88 | 1018.5 |
| 20260506081556 | 58 | 0 | 0.0 | 0.0 | 0.00 | 0.05 | 0.00 | 87 | 1018.3 |
| 20260506073059 | 58 | 0 | 0.0 | 0.0 | 0.00 | 0.05 | 0.00 | 86 | 1018.0 |
| 20260506071554 | 59 | 0 | 0.0 | 0.0 | 0.00 | 0.05 | 0.00 | 84 | 1017.8 |
| 20260506070116 | 59 | 0 | 0.0 | 0.0 | 0.00 | 0.05 | 0.00 | 84 | 1017.7 |
| 20260506061601 | 59 | 0 | 0.0 | 0.0 | 0.00 | 0.06 | 0.05 | 81 | 1017.5 |
| 20260506044600 | 60 | 0 | 0.0 | 1.0 | 0.00 | 0.27 | 0.05 | 79 | 1016.6 |
| 20260506043053 | 60 | 0 | 0.0 | 5.0 | 0.00 | 0.27 | 0.05 | 78 | 1016.3 |
| 20260506041556 | 60 | 0 | 0.0 | 7.0 | 0.00 | 0.27 | 0.05 | 78 | 1016.1 |
| 20260506040100 | 60 | 198 | 0.0 | 2.0 | 0.00 | 0.27 | 0.05 | 78 | 1016.0 |
| 20260506034554 | 60 | 0 | 0.0 | 1.0 | 0.00 | 0.33 | 0.05 | 78 | 1015.7 |
| 20260506033052 | 60 | 0 | 0.0 | 2.0 | 0.00 | 0.33 | 0.05 | 78 | 1015.5 |
| 20260506031601 | 60 | 0 | 0.0 | 3.0 | 0.00 | 0.33 | 0.05 | 77 | 1015.2 |
| 20260506030113 | 60 | 0 | 1.0 | 6.0 | 0.00 | 0.33 | 0.05 | 77 | 1015.0 |
| 20260506024554 | 61 | 201 | 0.0 | 5.0 | 0.00 | 0.37 | 0.05 | 78 | 1014.8 |
| 20260506023056 | 61 | 0 | 0.0 | 2.0 | 0.00 | 0.37 | 0.05 | 77 | 1014.4 |
| 20260506021558 | 61 | 0 | 0.0 | 2.0 | 0.00 | 0.37 | 0.05 | 77 | 1014.2 |
| 20260506020056 | 61 | 0 | 0.0 | 2.0 | 0.00 | 0.37 | 0.05 | 77 | 1014.0 |
| 20260506014600 | 62 | 0 | 0.0 | 1.0 | 0.00 | 0.38 | 0.05 | 76 | 1013.9 |
| 20260506013054 | 62 | 0 | 0.0 | 6.0 | 0.00 | 0.38 | 0.05 | 75 | 1013.7 |
| 20260506011558 | 62 | 0 | 0.0 | 1.0 | 0.00 | 0.38 | 0.05 | 77 | 1013.6 |
| 20260506010058 | 62 | 0 | 0.0 | 3.0 | 0.00 | 0.38 | 0.05 | 77 | 1013.5 |
| 20260506004626 | 62 | 0 | 0.0 | 7.0 | 0.00 | 0.38 | 0.05 | 75 | 1013.4 |
| 20260506003057 | 63 | 0 | 0.0 | 1.0 | 0.00 | 0.38 | 0.05 | 73 | 1013.2 |
| 20260506001600 | 63 | 0 | 0.0 | 0.0 | 0.00 | 0.38 | 0.05 | 74 | 1013.3 |
| 20260506000054 | 63 | 0 | 0.0 | 0.0 | 0.00 | 0.38 | 0.05 | 74 | 1013.2 |
| 20260505234614 | 63 | 173 | 0.0 | 2.0 | 0.00 | 0.38 | 0.05 | 73 | 1013.1 |
| 20260505233054 | 63 | 0 | 0.0 | 4.0 | 0.00 | 0.38 | 0.05 | 72 | 1013.2 |
| 20260505231551 | 63 | 162 | 0.0 | 4.0 | 0.00 | 0.38 | 0.05 | 70 | 1013.1 |
| 20260505230053 | 63 | 0 | 0.0 | 4.0 | 0.00 | 0.38 | 0.05 | 73 | 1013.4 |
| 20260505224552 | 62 | 218 | 0.0 | 5.0 | 0.00 | 0.38 | 0.05 | 75 | 1013.6 |
| 20260505223103 | 62 | 0 | 0.0 | 2.0 | 0.00 | 0.38 | 0.05 | 74 | 1013.7 |
| 20260505221608 | 62 | 0 | 0.0 | 5.0 | 0.00 | 0.38 | 0.05 | 73 | 1013.9 |
| 20260505220133 | 63 | 150 | 0.0 | 3.0 | 0.00 | 0.38 | 0.05 | 74 | 1013.9 |
| 20260505214615 | 63 | 175 | 0.0 | 2.0 | 0.00 | 0.38 | 0.05 | 71 | 1014.0 |
| 20260505213057 | 63 | 0 | 0.0 | 2.0 | 0.00 | 0.38 | 0.05 | 74 | 1014.0 |
| 20260505211613 | 64 | 0 | 0.0 | 3.0 | 0.00 | 0.38 | 0.05 | 76 | 1014.1 |
| 20260505210056 | 63 | 0 | 0.0 | 4.0 | 0.00 | 0.38 | 0.05 | 75 | 1014.1 |
| 20260505204555 | 62 | 0 | 0.0 | 2.0 | 0.00 | 0.38 | 0.05 | 74 | 1014.3 |
| 20260505203058 | 61 | 0 | 0.0 | 1.0 | 0.00 | 0.38 | 0.05 | 79 | 1014.5 |
| 20260505201606 | 61 | 0 | 0.0 | 0.0 | 0.00 | 0.38 | 0.05 | 77 | 1014.4 |
| 20260505200104 | 60 | 0 | 0.0 | 1.0 | 0.00 | 0.38 | 0.05 | 79 | 1014.6 |
| 20260505194603 | 60 | 0 | 0.0 | 0.0 | 0.00 | 0.38 | 0.05 | 78 | 1014.7 |
| 20260505193052 | 59 | 0 | 0.0 | 0.0 | 0.00 | 0.38 | 0.05 | 83 | 1014.9 |
| 20260505191555 | 59 | 0 | 0.0 | 0.0 | 0.00 | 0.38 | 0.05 | 82 | 1014.9 |
| 20260505190059 | 59 | 0 | 0.0 | 2.0 | 0.00 | 0.38 | 0.05 | 80 | 1015.0 |
| 20260505184552 | 59 | 0 | 0.0 | 2.0 | 0.00 | 0.38 | 0.05 | 84 | 1014.9 |
| 20260505183055 | 58 | 0 | 0.0 | 4.0 | 0.00 | 0.38 | 0.05 | 82 | 1014.9 |
| 20260505181552 | 57 | 165 | 0.0 | 1.0 | 0.00 | 0.38 | 0.05 | 86 | 1014.9 |
| 20260505180054 | 57 | 0 | 0.0 | 2.0 | 0.00 | 0.38 | 0.05 | 88 | 1014.9 |
| 20260505174604 | 56 | 0 | 1.0 | 5.0 | 0.00 | 0.38 | 0.05 | 88 | 1014.9 |
| 20260505173053 | 55 | 0 | 0.0 | 1.0 | 0.00 | 0.38 | 0.05 | 90 | 1014.9 |
| 20260505171556 | 55 | 0 | 0.0 | 2.0 | 0.00 | 0.38 | 0.05 | 93 | 1014.9 |
| 20260505170100 | 54 | 0 | 0.0 | 0.0 | 0.00 | 0.38 | 0.05 | 93 | 1014.7 |
| 20260505164611 | 54 | 0 | 0.0 | 0.0 | 0.00 | 0.38 | 0.05 | 93 | 1014.8 |
| 20260505163058 | 53 | 0 | 0.0 | 0.0 | 0.00 | 0.38 | 0.05 | 94 | 1014.9 |
| 20260505161558 | 53 | 0 | 0.0 | 0.0 | 0.00 | 0.38 | 0.05 | 94 | 1014.9 |
| 20260505160108 | 53 | 0 | 0.0 | 0.0 | 0.00 | 0.38 | 0.05 | 94 | 1014.7 |
| 20260505153053 | 52 | 0 | 0.0 | 1.0 | 0.00 | 0.38 | 0.05 | 93 | 1014.7 |